International Skating Union - Official Site

Essent ISU World Cup Berlin
November 19-21, 2010

Draw | Lap Times | Index | World Cup

Referee: Jan  AUGUSTINUS  (NED)
Starter: Hartmut  WEIRAUCH  (GER)
StartTime: EndTime: Air Temp: Ice Temp: Humidity:
15:20 16:08 14 ℃ -5.4 ℃ 30%
Result Team Pursuit Men
Rankings as of Jun 22 2010 1:27AM
Rank: No.: Team: Nation: Time: Behind: Points:
Total 13
1 149 USA (132) Shani DAVIS (134) Trevor MARSICANO (135) Jonathan KUCK USA USA 3:43.100.5 - 17.86 - (14.4)
1.0 - 31.08 - (13.2)
1.5 - 43.80 - (12.7)
2.0 - 57.05 - (13.2)
2.5 - 1:10.22 - (13.1)
3.0 - 1:23.82 - (13.6)
3.5 - 1:37.42 - (13.6)
4.0 - 1:51.23 - (13.8)
4.5 - 2:04.63 - (13.4)
5.0 - 2:18.64 - (14.0)
5.5 - 2:32.48 - (13.8)
6.0 - 2:46.62 - (14.1)
6.5 - 3:00.70 - (14.0)
7.0 - 3:14.93 - (14.2)
7.5 - 3:28.84 - (13.9)
8.0 - 3:43.10 - (14.2)
100
2 146 Norway (98) Håvard BØKKO (99) Henrik CHRISTIANSEN (107) Sverre LUNDE PEDERSEN NOR NOR 3:44.650.5 - 17.67 - (17.6)
1.0 - 31.26 - (13.5)
1.5 - 44.64 - (13.3)
2.0 - 58.25 - (13.6)
2.5 - 1:11.70 - (13.4)
3.0 - 1:25.36 - (13.6)
3.5 - 1:39.09 - (13.7)
4.0 - 1:53.05 - (13.9)
4.5 - 2:06.83 - (13.7)
5.0 - 2:20.77 - (13.9)
5.5 - 2:34.64 - (13.8)
6.0 - 2:48.74 - (14.1)
6.5 - 3:02.83 - (14.0)
7.0 - 3:16.85 - (14.0)
7.5 - 3:30.51 - (13.6)
8.0 - 3:44.65 - (14.1)
1.55 80
3 147 Netherlands (88) Wouter OLDE HEUVEL (90) Koen VERWEIJ (93) Bob de VRIES NED NED 3:45.380.5 - 18.38 - (13.9)
1.0 - 31.86 - (13.4)
1.5 - 45.30 - (13.4)
2.0 - 58.96 - (13.6)
2.5 - 1:12.42 - (13.4)
3.0 - 1:26.31 - (13.8)
3.5 - 1:39.94 - (13.6)
4.0 - 1:53.90 - (13.9)
4.5 - 2:07.57 - (13.6)
5.0 - 2:21.54 - (13.9)
5.5 - 2:35.38 - (13.8)
6.0 - 2:49.53 - (14.1)
6.5 - 3:03.53 - (14.0)
7.0 - 3:17.38 - (13.8)
7.5 - 3:31.26 - (13.8)
8.0 - 3:45.38 - (14.1)
2.28 70
4 151 Italy (47) Enrico FABRIS (48) Luca STEFANI (52) Matteo ANESI ITA ITA 3:46.160.5 - 17.57 - (17.5)
1.0 - 31.19 - (13.6)
1.5 - 44.48 - (13.2)
2.0 - 58.46 - (13.9)
2.5 - 1:11.80 - (13.3)
3.0 - 1:25.62 - (13.8)
3.5 - 1:39.29 - (13.6)
4.0 - 1:53.09 - (13.8)
4.5 - 2:06.67 - (13.5)
5.0 - 2:20.89 - (14.2)
5.5 - 2:34.82 - (13.9)
6.0 - 2:49.40 - (14.5)
6.5 - 3:03.32 - (13.9)
7.0 - 3:17.43 - (14.1)
7.5 - 3:31.43 - (14.0)
8.0 - 3:46.16 - (14.7)
3.06 60
5 148 Canada (8) Denny MORRISON (13) Philippe RIOPEL (14) Justin WARSYLEWICZ CAN CAN 3:48.240.5 - 17.41 - (17.4)
1.0 - 30.88 - (13.4)
1.5 - 43.98 - (13.1)
2.0 - 57.96 - (13.9)
2.5 - 1:11.61 - (13.6)
3.0 - 1:25.48 - (13.8)
3.5 - 1:39.11 - (13.6)
4.0 - 1:53.21 - (14.1)
4.5 - 2:07.01 - (13.8)
5.0 - 2:21.33 - (14.3)
5.5 - 2:35.73 - (14.3)
6.0 - 2:50.08 - (14.3)
6.5 - 3:04.22 - (14.1)
7.0 - 3:19.09 - (14.8)
7.5 - 3:33.51 - (14.4)
8.0 - 3:48.24 - (14.7)
5.14 50
6 250 Germany (41) Robert LEHMANN (42) Marco WEBER (43) Patrick BECKERT GER GER 3:48.710.5 - 17.61 - (17.6)
1.0 - 31.13 - (13.5)
1.5 - 44.95 - (13.8)
2.0 - 58.76 - (13.8)
2.5 - 1:12.80 - (14.0)
3.0 - 1:26.81 - (14.0)
3.5 - 1:40.86 - (14.0)
4.0 - 1:54.63 - (13.7)
4.5 - 2:09.06 - (14.4)
5.0 - 2:22.98 - (13.9)
5.5 - 2:37.36 - (14.3)
6.0 - 2:51.58 - (14.2)
6.5 - 3:05.98 - (14.4)
7.0 - 3:20.51 - (14.5)
7.5 - 3:34.48 - (13.9)
8.0 - 3:48.71 - (14.2)
8.0 - 3:19.85 - (99.8)
5.61 45
7 248 Russia (121) Ivan SKOBREV (122) Yevgeny LALENKOV (126) Aleksandr RUMYANTSEV RUS RUS 3:48.990.5 - 17.92 - (17.9)
1.0 - 31.23 - (13.3)
1.5 - 45.58 - (14.3)
2.0 - 58.64 - (13.0)
2.5 - 1:13.16 - (14.5)
3.0 - 1:26.48 - (13.3)
3.5 - 1:41.29 - (14.8)
4.0 - 1:54.99 - (13.7)
4.5 - 2:10.06 - (15.0)
5.0 - 2:23.43 - (13.3)
5.5 - 2:38.09 - (14.6)
6.0 - 2:51.69 - (13.6)
6.5 - 3:06.51 - (14.8)
7.0 - 3:20.06 - (13.5)
7.5 - 3:34.63 - (14.5)
8.0 - 3:48.99 - (14.3)
5.89 40
8 251 Korea (73) Jong-Woo LEE (75) Byung-Wook KO (76) Seung-Hoon LEE KOR KOR 3:49.890.5 - 17.95 - (14.3)
1.0 - 31.39 - (13.4)
1.5 - 44.95 - (13.5)
2.0 - 58.57 - (13.6)
2.5 - 1:12.61 - (14.0)
3.0 - 1:26.51 - (13.9)
3.5 - 1:40.31 - (13.8)
4.0 - 1:54.09 - (13.7)
4.5 - 2:07.82 - (13.7)
5.0 - 2:21.86 - (14.0)
5.5 - 2:36.12 - (14.2)
6.0 - 2:50.26 - (14.1)
6.5 - 3:04.61 - (14.3)
7.0 - 3:19.26 - (14.6)
7.5 - 3:34.29 - (15.0)
8.0 - 3:49.89 - (15.6)
8.0 - 3:18.69 - (98.6)
6.79 36
9 249 Poland (109) Konrad NIEDZWIEDZKI (110) Jan SZYMANSKI (111) Zbigniew BRODKA POL POL 3:50.760.5 - 17.88 - (14.4)
1.0 - 31.03 - (13.1)
1.5 - 45.39 - (14.3)
2.0 - 58.63 - (13.2)
2.5 - 1:13.33 - (14.7)
3.0 - 1:27.07 - (13.7)
3.5 - 1:42.06 - (14.9)
4.0 - 1:55.84 - (13.7)
4.5 - 2:10.24 - (14.4)
5.0 - 2:23.78 - (13.5)
5.5 - 2:38.61 - (14.8)
6.0 - 2:52.52 - (13.9)
6.5 - 3:07.62 - (15.1)
7.0 - 3:21.54 - (13.9)
7.5 - 3:36.25 - (14.7)
8.0 - 3:50.76 - (14.5)
7.66 32
10 252 Kazakhstan (64) Artyom BELOUSOV (67) Dmitry BABENKO (69) Aleksandr ZHIGIN KAZ KAZ 3:52.190.5 - 18.09 - (18.0)
1.0 - 32.41 - (14.3)
1.5 - 46.45 - (14.0)
2.0 - 1:00.79 - (14.3)
2.5 - 1:14.86 - (14.0)
3.0 - 1:28.95 - (14.0)
3.5 - 1:43.29 - (14.3)
4.0 - 1:57.82 - (14.5)
4.5 - 2:12.06 - (14.2)
5.0 - 2:26.27 - (14.2)
5.5 - 2:40.51 - (14.2)
6.0 - 2:54.94 - (14.4)
6.5 - 3:09.09 - (14.1)
7.0 - 3:23.16 - (14.0)
7.5 - 3:37.45 - (14.2)
8.0 - 3:52.19 - (14.7)
9.09 28
11 254 France (31) Pascal BRIAND (32) Alexis CONTIN (33) Bejamin MACÉ FRA FRA 3:54.730.5 - 17.64 - (17.6)
1.0 - 31.03 - (13.3)
1.5 - 45.41 - (14.3)
2.0 - 58.60 - (13.1)
2.5 - 1:13.09 - (14.4)
3.0 - 1:26.33 - (13.2)
3.5 - 1:40.92 - (14.5)
4.0 - 1:54.42 - (13.5)
4.5 - 2:09.51 - (15.0)
5.0 - 2:24.39 - (14.8)
5.5 - 2:39.20 - (14.8)
6.0 - 2:54.12 - (14.9)
6.5 - 3:09.49 - (15.3)
7.0 - 3:24.98 - (15.4)
7.5 - 3:39.82 - (14.8)
8.0 - 3:54.73 - (14.9)
11.63 24
12 247 Japan (58) Hiroki ABE (60) Shota NAKAMURA (61) Norimasa ZAIKE JPN JPN 3:56.770.5 - 17.76 - (14.5)
1.0 - 31.78 - (14.0)
1.5 - 45.57 - (13.7)
2.0 - 59.42 - (13.8)
2.5 - 1:13.15 - (13.7)
3.0 - 1:27.30 - (14.1)
3.5 - 1:41.63 - (14.3)
4.0 - 1:56.06 - (14.4)
4.5 - 2:10.36 - (14.3)
5.0 - 2:24.77 - (14.4)
5.5 - 2:39.36 - (14.5)
6.0 - 2:54.60 - (15.2)
6.5 - 3:09.98 - (15.3)
7.0 - 3:25.41 - (15.4)
7.5 - 3:40.76 - (15.3)
8.0 - 3:56.77 - (16.0)
13.67 21
13 253 Czech Republic (23) Milan SÁBLIK (24) Pavel KULMA (25) Zdenek HASELBERGER CZE CZE 3:59.520.0 - 32.30 - (32.3)
0.5 - 18.62 - (13.6)
1.0 - 32.89 - (14.2)
1.5 - 47.13 - (14.2)
2.0 - 1:01.30 - (14.1)
2.5 - 1:15.59 - (14.2)
3.0 - 1:29.76 - (14.1)
3.5 - 1:44.20 - (14.4)
4.0 - 1:58.95 - (14.7)
4.5 - 2:13.97 - (15.0)
5.0 - 2:28.80 - (14.8)
5.5 - 2:43.89 - (15.0)
6.0 - 2:58.80 - (14.9)
6.5 - 3:13.04 - (14.2)
7.0 - 3:29.07 - (16.0)
7.5 - 3:44.31 - (15.2)
8.0 - 3:59.52 - (15.2)
16.42 18